Date String (YYYY-MM-DD hh:mm:ss) UTC,Instrument flags,absolute air pressure of the measurement (hPa),sample flow rate (lpm),inlet stack bypass flow (lpm),air temperature of the measurement (°C),ambient temperature measured by the external sensor (°C),aerosol sample conditioner tube jacket temperature (°C),OPC LED temperature (°C),internal box temperature (°C),relative humidity of the measurement (%),span deviation,mass concentration of particles derived from Lorenz-Mie calculation of OPC scattering (μg/m³),mass concentration of particles derived from Lorenz-Mie calculation of OPC scattering (μg/m³),mass concentration of particles derived from Lorenz-Mie calculation of OPC scattering (μg/m³)
DateTimeUTC,F1_M11,P_M11,Q1_M11,Q2_M11,T1_M11,T2_M11,T3_M11,T4_M11,T5_M11,U1_M11,ZSPAN_M11,X0_M11,X2_M11,X1_M11
2023-09-24 03:00:00,SystemResetWarning,0830.9,5.00,000.00,028.1,026.2,000.0,036.5,029.7,12.4,0000.0,0018.81,0005.00,0003.33
2023-09-24 03:01:00,SystemResetWarning,0830.9,5.00,000.00,028.1,026.4,000.0,036.5,029.7,12.4,0000.0,0017.88,0004.94,0003.33
2023-09-24 03:02:00,SystemResetWarning,0830.9,5.00,000.00,028.1,026.6,000.0,036.5,029.8,12.4,0000.0,0017.68,0004.97,0003.33
2023-09-24 03:03:00,SystemResetWarning,0830.9,4.98,000.00,028.1,026.7,000.0,036.5,029.8,12.3,0000.0,0017.62,0004.98,0003.33
2023-09-24 03:04:00,SystemResetWarning,0830.9,5.00,000.00,028.2,026.8,000.0,036.5,029.8,12.3,0000.0,0017.37,0005.02,0003.33
2023-09-24 03:05:00,SystemResetWarning,0830.9,5.02,000.00,028.2,026.9,000.0,036.5,029.9,12.2,0000.0,0017.29,0005.00,0003.34
2023-09-24 03:06:00,SystemResetWarning,0830.9,4.99,000.00,028.2,027.0,000.0,036.5,029.9,12.2,0000.0,0017.37,0004.95,0003.34
2023-09-24 03:07:00,SystemResetWarning,0830.9,4.99,000.00,028.3,027.0,000.0,036.5,029.9,12.2,0000.0,0017.95,0004.97,0003.33
2023-09-24 03:08:00,SystemResetWarning,0830.9,4.99,000.00,028.3,027.1,000.0,036.5,030.0,12.1,0000.0,0017.93,0004.94,0003.33
2023-09-24 03:09:00,SystemResetWarning,0830.9,5.02,000.00,028.3,027.2,000.0,036.5,030.0,12.2,0000.0,0017.48,0004.94,0003.34
2023-09-24 03:10:00,SystemResetWarning,0830.9,5.00,000.00,028.3,027.2,000.0,036.6,030.0,12.1,0000.4,0017.82,0004.92,0003.35
2023-09-24 03:11:00,SystemResetWarning,0830.9,4.99,000.00,028.4,027.2,000.0,036.6,030.1,12.0,0001.3,0019.92,0004.84,0003.33
2023-09-24 03:12:00,SystemResetWarning,0830.9,4.99,000.00,028.4,027.3,000.0,036.6,030.1,12.1,0001.1,0021.00,0004.91,0003.34
2023-09-24 03:13:00,SystemResetWarning,0830.9,5.00,000.00,028.4,027.3,000.0,036.6,030.1,12.0,0001.9,0021.06,0004.94,0003.35
2023-09-24 03:14:00,SystemResetWarning,0831.0,5.01,000.00,028.5,027.3,000.0,036.7,030.2,12.0,0002.6,0021.28,0004.87,0003.35
2023-09-24 03:15:00,SystemResetWarning,0831.0,5.00,000.00,028.5,027.4,000.0,036.7,030.2,11.9,0002.6,0020.89,0004.86,0003.35
2023-09-24 03:16:00,SystemResetWarning,0831.0,5.00,000.00,028.5,027.0,000.0,036.7,030.1,11.8,0002.8,0020.39,0004.86,0003.36
2023-09-24 03:17:00,SystemResetWarning,0830.9,4.98,000.00,028.4,025.1,000.0,036.6,029.8,11.8,0002.9,0020.38,0004.86,0003.36
2023-09-24 03:18:00,SystemResetWarning,0830.9,5.01,000.00,028.3,024.4,000.0,036.6,029.6,11.9,0002.4,0020.73,0004.83,0003.37
2023-09-24 03:19:00,SystemResetWarning,0830.9,5.01,000.00,028.2,024.5,000.0,036.6,029.5,12.0,0002.0,0021.19,0004.82,0003.37
2023-09-24 03:20:00,SystemResetWarning,0831.0,4.99,000.00,028.1,024.8,000.0,036.5,029.5,12.1,0001.9,0022.17,0004.86,0003.38
2023-09-24 03:21:00,SystemResetWarning,0831.1,5.00,000.00,028.1,025.1,000.0,036.5,029.5,12.1,0002.5,0023.68,0004.95,0003.38
2023-09-24 03:22:00,SystemResetWarning,0831.0,5.01,000.00,028.1,025.4,000.0,036.5,029.5,12.2,0000.6,0022.86,0005.01,0003.40
2023-09-24 03:23:00,SystemResetWarning,0831.0,5.00,000.00,028.1,025.8,000.0,036.5,029.6,12.2,0000.0,0021.57,0004.94,0003.39
2023-09-24 03:24:00,SystemResetWarning,0831.1,5.00,000.00,028.1,026.0,000.0,036.5,029.6,12.3,0000.0,0021.25,0004.83,0003.38
2023-09-24 03:25:00,SystemResetWarning,0831.1,4.99,000.00,028.1,026.2,000.0,036.5,029.7,12.4,0000.0,0020.48,0004.82,0003.38
2023-09-24 03:26:00,SystemResetWarning,0831.1,4.99,000.00,028.1,026.4,000.0,036.5,029.7,12.3,0000.0,0020.35,0004.86,0003.39
2023-09-24 03:27:00,SystemResetWarning,0831.0,5.00,000.00,028.1,026.6,000.0,036.5,029.7,12.3,0000.0,0020.08,0004.84,0003.39
2023-09-24 03:28:00,SystemResetWarning,0831.1,5.01,000.00,028.1,026.7,000.0,036.5,029.8,12.3,0000.0,0019.70,0004.83,0003.39
2023-09-24 03:29:00,SystemResetWarning,0831.1,5.00,000.00,028.2,026.8,000.0,036.5,029.8,12.2,0000.0,0018.34,0004.81,0003.39
2023-09-24 03:30:00,SystemResetWarning,0831.1,5.00,000.00,028.2,026.9,000.0,036.5,029.8,12.2,0000.0,0018.09,0004.81,0003.39
2023-09-24 03:31:00,SystemResetWarning,0831.1,5.00,000.00,028.2,026.9,000.0,036.5,029.9,12.1,0000.0,0017.84,0004.85,0003.39
2023-09-24 03:32:00,SystemResetWarning,0831.1,4.99,000.00,028.2,027.0,000.0,036.5,029.9,12.3,0000.0,0016.36,0004.80,0003.38
2023-09-24 03:33:00,SystemResetWarning,0831.1,5.02,000.00,028.3,027.1,000.0,036.5,029.9,12.0,0000.0,0016.35,0004.79,0003.38
2023-09-24 03:34:00,SystemResetWarning,0831.1,5.00,000.00,028.3,027.1,000.0,036.5,029.9,12.0,0003.1,0016.34,0004.83,0003.38
2023-09-24 03:35:00,SystemResetWarning,0831.1,5.00,000.00,028.3,027.1,000.0,036.6,030.0,12.0,0003.9,0016.25,0004.90,0003.39
2023-09-24 03:36:00,SystemResetWarning,0831.0,5.00,000.00,028.3,027.1,000.0,036.6,030.0,11.9,0003.8,0016.35,0004.91,0003.39
2023-09-24 03:37:00,SystemResetWarning,0831.1,5.00,000.00,028.4,027.2,000.0,036.6,030.0,11.9,0003.5,0016.11,0004.89,0003.38
2023-09-24 03:38:00,SystemResetWarning,0831.1,5.00,000.00,028.4,027.2,000.0,036.6,030.0,11.8,0002.9,0016.03,0004.88,0003.38
2023-09-24 03:39:00,SystemResetWarning,0831.1,4.99,000.00,028.4,027.2,000.0,036.6,030.1,11.9,0002.9,0017.04,0004.95,0003.38
2023-09-24 03:40:00,SystemResetWarning,0831.1,5.01,000.00,028.4,027.2,000.0,036.7,030.1,11.8,0001.2,0017.69,0005.02,0003.37
2023-09-24 03:41:00,SystemResetWarning,0831.1,5.01,000.00,028.5,027.3,000.0,036.7,030.1,11.8,0000.3,0018.06,0005.01,0003.37
2023-09-24 03:42:00,SystemResetWarning,0831.1,4.99,000.00,028.5,027.3,000.0,036.7,030.1,11.8,0000.5,0017.89,0004.96,0003.35
2023-09-24 03:43:00,SystemResetWarning,0831.2,4.99,000.00,028.5,027.3,000.0,036.7,030.2,11.7,0000.0,0017.39,0004.96,0003.34
2023-09-24 03:44:00,SystemResetWarning,0831.1,5.00,000.00,028.5,027.3,000.0,036.7,030.2,11.7,0000.0,0016.20,0004.95,0003.33
2023-09-24 03:45:00,SystemResetWarning,0831.2,5.02,000.00,028.5,027.3,000.0,036.7,030.2,11.7,0000.0,0017.38,0004.93,0003.34
2023-09-24 03:46:00,SystemResetWarning,0831.1,5.01,000.00,028.5,027.3,000.0,036.8,030.2,11.7,0000.0,0018.78,0004.93,0003.35
2023-09-24 03:47:00,SystemResetWarning,0831.1,4.99,000.00,028.6,027.3,000.0,036.8,030.2,11.6,0000.0,0018.26,0004.91,0003.36
2023-09-24 03:48:00,SystemResetWarning,0831.1,4.99,000.00,028.6,027.4,000.0,036.8,030.2,11.6,0000.0,0018.82,0004.94,0003.37
2023-09-24 03:49:00,SystemResetWarning,0831.1,5.00,000.00,028.6,027.4,000.0,036.8,030.3,11.7,0000.0,0019.74,0004.98,0003.37
2023-09-24 03:50:00,SystemResetWarning,0831.1,5.00,000.00,028.6,026.3,000.0,036.8,030.0,11.6,0000.0,0019.62,0004.98,0003.37
2023-09-24 03:51:00,SystemResetWarning,0831.1,5.00,000.00,028.5,024.6,000.0,036.7,029.7,11.7,0000.3,0018.99,0004.93,0003.36
2023-09-24 03:52:00,SystemResetWarning,0831.1,5.01,000.00,028.4,024.3,000.0,036.7,029.6,11.8,0002.2,0018.13,0004.90,0003.37
2023-09-24 03:53:00,SystemResetWarning,0831.1,5.02,000.00,028.2,024.5,000.0,036.7,029.5,11.9,0003.0,0017.23,0004.88,0003.38
2023-09-24 03:54:00,SystemResetWarning,0831.3,5.00,000.00,028.2,024.8,000.0,036.7,029.5,11.9,0003.4,0017.67,0004.86,0003.39
2023-09-24 03:55:00,SystemResetWarning,0831.2,5.00,000.00,028.1,025.2,000.0,036.6,029.5,12.1,0002.8,0018.60,0004.89,0003.40
2023-09-24 03:56:00,SystemResetWarning,0831.2,5.00,000.00,028.1,025.5,000.0,036.6,029.6,12.0,0000.0,0018.61,0004.93,0003.40
2023-09-24 03:57:00,SystemResetWarning,0831.3,4.99,000.00,028.1,025.8,000.0,036.6,029.6,12.0,0000.0,0017.57,0004.95,0003.39
2023-09-24 03:58:00,SystemResetWarning,0831.3,4.99,000.00,028.1,026.1,000.0,036.6,029.6,12.0,0000.0,0016.91,0004.93,0003.37
2023-09-24 03:59:00,SystemResetWarning,0831.3,5.00,000.00,028.2,026.3,000.0,036.6,029.7,12.0,0000.0,0017.49,0004.89,0003.36
